TimeCDT,TemperatureF,Dew PointF,Humidity,Sea Level PressureIn,VisibilityMPH,Wind Direction,Wind SpeedMPH,Gust SpeedMPH,PrecipitationIn,Events,Conditions,WindDirDegrees,DateUTC
12:15 AM,43.0,37.0,80,29.87,10.0,SSW,5.8,-,N/A,,Clear,200,2013-10-18 05:15:00
12:35 AM,42.1,37.0,82,29.88,10.0,SW,5.8,-,N/A,,Clear,220,2013-10-18 05:35:00
12:55 AM,42.6,37.6,82,29.88,10.0,SW,6.9,-,N/A,,Clear,220,2013-10-18 05:55:00
1:15 AM,43.9,37.9,80,29.88,10.0,WSW,6.9,-,N/A,,Clear,240,2013-10-18 06:15:00
1:35 AM,45.0,38.5,78,29.89,10.0,WSW,6.9,-,N/A,,Clear,250,2013-10-18 06:35:00
1:55 AM,44.4,38.8,81,29.89,10.0,West,5.8,-,N/A,,Clear,270,2013-10-18 06:55:00
2:15 AM,42.8,38.8,86,29.89,10.0,West,6.9,-,N/A,,Clear,270,2013-10-18 07:15:00
2:35 AM,42.3,39.2,89,29.90,10.0,West,5.8,-,N/A,,Clear,270,2013-10-18 07:35:00
2:55 AM,42.3,39.7,91,29.90,10.0,West,5.8,-,N/A,,Clear,270,2013-10-18 07:55:00
3:15 AM,43.0,40.5,91,29.90,10.0,West,5.8,-,N/A,,Clear,260,2013-10-18 08:15:00
3:35 AM,42.8,40.8,93,29.90,10.0,West,5.8,-,N/A,,Clear,260,2013-10-18 08:35:00
3:55 AM,42.8,41.0,93,29.91,10.0,West,6.9,-,N/A,,Clear,260,2013-10-18 08:55:00
4:15 AM,43.0,41.9,96,29.91,10.0,West,8.1,-,N/A,,Mostly Cloudy,260,2013-10-18 09:15:00
4:35 AM,42.6,41.4,95,29.91,10.0,West,5.8,-,N/A,,Scattered Clouds,260,2013-10-18 09:35:00
4:55 AM,41.7,41.0,97,29.91,10.0,West,5.8,-,N/A,,Clear,260,2013-10-18 09:55:00
5:15 AM,41.0,41.0,100,29.92,10.0,West,5.8,-,N/A,,Scattered Clouds,260,2013-10-18 10:15:00
5:35 AM,43.0,41.9,96,29.92,10.0,WNW,11.5,17.3,N/A,,Mostly Cloudy,290,2013-10-18 10:35:00
5:55 AM,43.7,41.9,93,29.93,10.0,WNW,11.5,18.4,N/A,,Overcast,290,2013-10-18 10:55:00
6:15 AM,43.7,42.1,94,29.94,10.0,WNW,8.1,-,N/A,,Overcast,290,2013-10-18 11:15:00
6:35 AM,43.3,41.5,93,29.95,10.0,West,9.2,-,N/A,,Overcast,280,2013-10-18 11:35:00
6:55 AM,43.2,41.4,93,29.96,10.0,West,9.2,-,N/A,,Overcast,280,2013-10-18 11:55:00
7:33 AM,42.8,39.2,87,29.97,10.0,West,11.5,-,N/A,,Overcast,280,2013-10-18 12:33:00
7:35 AM,43.2,40.3,90,29.97,10.0,West,12.7,-,N/A,,Overcast,280,2013-10-18 12:35:00
7:53 AM,42.8,39.2,87,29.98,10.0,West,13.8,-,N/A,,Overcast,270,2013-10-18 12:53:00
8:35 AM,43.2,39.2,86,29.99,10.0,WNW,11.5,-,N/A,,Overcast,290,2013-10-18 13:35:00
8:55 AM,43.5,38.7,83,30.00,10.0,West,12.7,17.3,N/A,,Overcast,280,2013-10-18 13:55:00
9:15 AM,43.7,38.3,81,30.00,10.0,WNW,13.8,-,N/A,,Overcast,300,2013-10-18 14:15:00
9:35 AM,44.2,38.5,80,30.01,10.0,West,12.7,-,N/A,,Overcast,270,2013-10-18 14:35:00
9:55 AM,44.6,38.3,79,30.02,10.0,West,9.2,17.3,N/A,,Overcast,280,2013-10-18 14:55:00
10:15 AM,45.0,38.3,77,30.01,10.0,WNW,10.4,-,N/A,,Overcast,300,2013-10-18 15:15:00
10:21 AM,44.6,39.2,81,30.01,10.0,West,10.4,-,N/A,,Overcast,270,2013-10-18 15:21:00
10:35 AM,45.7,38.3,75,30.01,10.0,West,11.5,16.1,N/A,,Overcast,280,2013-10-18 15:35:00
10:41 AM,46.4,37.4,71,30.01,10.0,West,13.8,-,N/A,,Overcast,280,2013-10-18 15:41:00
10:55 AM,46.4,38.5,74,30.02,10.0,West,11.5,16.1,N/A,,Overcast,280,2013-10-18 15:55:00
11:01 AM,46.4,37.4,71,30.02,10.0,WNW,15.0,-,N/A,,Overcast,290,2013-10-18 16:01:00
11:15 AM,46.4,38.1,73,30.02,10.0,West,9.2,16.1,N/A,,Overcast,280,2013-10-18 16:15:00
11:35 AM,46.8,37.9,71,30.02,10.0,West,9.2,-,N/A,,Overcast,280,2013-10-18 16:35:00
11:42 AM,46.4,37.4,71,30.02,10.0,WNW,10.4,-,N/A,,Overcast,290,2013-10-18 16:42:00
11:55 AM,47.3,37.6,69,30.02,10.0,WNW,11.5,-,N/A,,Overcast,300,2013-10-18 16:55:00
12:15 PM,48.7,38.3,67,30.01,10.0,WNW,6.9,-,N/A,,Overcast,300,2013-10-18 17:15:00
12:22 PM,48.2,37.4,66,30.01,10.0,West,8.1,-,N/A,,Overcast,280,2013-10-18 17:22:00
12:35 PM,50.4,37.9,62,30.01,10.0,West,9.2,17.3,N/A,,Overcast,280,2013-10-18 17:35:00
12:55 PM,51.8,38.1,60,30.00,10.0,WNW,8.1,16.1,N/A,,Mostly Cloudy,290,2013-10-18 17:55:00
1:01 PM,53.6,39.2,58,30.00,10.0,WSW,10.4,-,N/A,,Mostly Cloudy,250,2013-10-18 18:01:00
1:15 PM,50.5,37.6,61,29.99,10.0,West,15.0,-,N/A,,Mostly Cloudy,280,2013-10-18 18:15:00
1:22 PM,53.6,37.4,54,29.99,10.0,West,9.2,17.3,N/A,,Mostly Cloudy,260,2013-10-18 18:22:00
1:35 PM,53.2,37.8,56,29.98,10.0,WNW,10.4,19.6,N/A,,Overcast,290,2013-10-18 18:35:00
1:55 PM,52.0,37.4,58,29.98,10.0,WNW,12.7,-,N/A,,Mostly Cloudy,300,2013-10-18 18:55:00
2:15 PM,50.9,36.9,59,29.98,10.0,WNW,15.0,18.4,N/A,,Scattered Clouds,290,2013-10-18 19:15:00
2:35 PM,50.5,36.7,59,29.98,10.0,NW,9.2,-,N/A,,Scattered Clouds,310,2013-10-18 19:35:00
2:55 PM,50.5,37.0,60,29.99,10.0,WNW,11.5,-,N/A,,Scattered Clouds,290,2013-10-18 19:55:00
3:15 PM,50.7,37.6,61,29.99,10.0,WNW,9.2,-,N/A,,Scattered Clouds,300,2013-10-18 20:15:00
3:35 PM,50.5,36.7,59,29.99,10.0,West,11.5,16.1,N/A,,Scattered Clouds,280,2013-10-18 20:35:00
3:55 PM,50.0,37.0,61,29.99,10.0,WNW,10.4,-,N/A,,Scattered Clouds,300,2013-10-18 20:55:00
4:15 PM,49.6,37.4,63,29.99,10.0,West,11.5,-,N/A,,Mostly Cloudy,280,2013-10-18 21:15:00
4:35 PM,49.3,37.2,63,29.99,10.0,WNW,9.2,-,N/A,,Overcast,290,2013-10-18 21:35:00
4:55 PM,48.6,37.4,65,29.99,10.0,NW,9.2,-,N/A,,Overcast,310,2013-10-18 21:55:00
5:15 PM,47.8,37.4,67,29.99,10.0,WNW,8.1,-,N/A,,Overcast,300,2013-10-18 22:15:00
5:35 PM,47.3,37.2,68,29.99,10.0,West,6.9,-,N/A,,Overcast,280,2013-10-18 22:35:00
5:55 PM,47.3,37.4,68,29.99,10.0,West,8.1,-,N/A,,Overcast,270,2013-10-18 22:55:00
6:15 PM,46.6,37.4,70,30.00,10.0,West,4.6,-,N/A,,Overcast,260,2013-10-18 23:15:00
6:35 PM,46.2,37.0,70,30.00,10.0,West,4.6,-,N/A,,Overcast,270,2013-10-18 23:35:00
6:55 PM,45.9,37.0,71,30.00,10.0,Calm,Calm,-,N/A,,Overcast,0,2013-10-18 23:55:00
7:15 PM,45.5,37.6,74,29.99,10.0,Calm,Calm,-,N/A,,Overcast,0,2013-10-19 00:15:00
7:35 PM,45.3,37.6,74,29.99,10.0,Calm,Calm,-,N/A,,Overcast,0,2013-10-19 00:35:00
7:55 PM,44.8,37.9,77,30.00,10.0,Calm,Calm,-,N/A,,Overcast,0,2013-10-19 00:55:00
8:15 PM,44.6,38.3,79,30.00,10.0,SW,3.5,-,N/A,,Overcast,220,2013-10-19 01:15:00
8:35 PM,44.2,38.5,80,29.99,10.0,Calm,Calm,-,N/A,,Overcast,0,2013-10-19 01:35:00
8:55 PM,44.6,38.3,79,30.00,10.0,SW,3.5,-,N/A,,Overcast,230,2013-10-19 01:55:00
9:15 PM,44.6,38.5,79,30.00,10.0,SW,3.5,-,N/A,,Overcast,220,2013-10-19 02:15:00
9:35 PM,44.6,38.5,79,30.00,10.0,SW,3.5,-,N/A,,Overcast,230,2013-10-19 02:35:00
9:55 PM,44.4,38.7,80,30.00,10.0,SW,3.5,-,N/A,,Overcast,220,2013-10-19 02:55:00
10:15 PM,44.6,39.4,82,30.00,10.0,SSW,6.9,-,N/A,,Overcast,210,2013-10-19 03:15:00
10:35 PM,43.9,39.7,85,30.00,10.0,SSW,10.4,-,N/A,,Overcast,210,2013-10-19 03:35:00
10:55 PM,43.7,39.7,86,30.00,10.0,SW,8.1,-,N/A,,Drizzle,220,2013-10-19 03:55:00
11:15 PM,42.8,40.1,90,29.99,10.0,SW,5.8,-,N/A,,Light Drizzle,220,2013-10-19 04:15:00
11:35 PM,42.6,40.3,91,29.99,10.0,SW,6.9,-,N/A,,Light Drizzle,230,2013-10-19 04:35:00
11:55 PM,42.4,40.1,91,29.98,10.0,SW,6.9,-,N/A,,Overcast,230,2013-10-19 04:55:00